Regional Weather Roundup
Issued by NWS Little Rock, AR

Home | Current Version | Previous Version | Text Only | Print | Product List | Glossary On
Versions: 1 2 3 4 5 6 7 8 9 10 11 12 13 14 15 16 17 18 19 20 21 22 23 24 25 26 27 28 29 30 31 32 33 34 35 36 37 38 39 40 41 42 43 44 45 46 47 48 49 50
000
ASUS44 KLZK 010605
RWRLZK

WEATHER ROUNDUP FOR ARKANSAS
NATIONAL WEATHER SERVICE LITTLE ROCK AR
1200 AM CST SUN FEB 01 2015

NOTE: "FAIR" INDICATES FEW OR NO CLOUDS BELOW 12,000 FEET WITH NO
SIGNIFICANT WEATHER AND/OR OBSTRUCTIONS TO VISIBILITY.

ARZ001-003-010-029-010700-
NORTHWEST ARKANSAS

CITY           SKY/WX    TMP DP  RH WIND       PRES   REMARKS
FAYETTEVILLE   LGT RAIN  40  36  86 S15       29.87F
6HR MIN TEMP:  40; 6HR MAX TEMP:  45; 6HR PCP:  0.02;

FORT SMITH     CLOUDY    41  37  86 NE9       29.93F
6HR MIN TEMP:  41; 6HR MAX TEMP:  49; 6HR PCP:  0.06;

HARRISON       CLOUDY    41  29  62 S20       29.89F
6HR MIN TEMP:  39; 6HR MAX TEMP:  42; 6HR PCP: TRACE;

BENTONVILLE    CLOUDY    41  34  75 S9G23     29.88F
6HR MIN TEMP:  39; 6HR MAX TEMP:  46; 6HR PCP:  0.11;

ROGERS         RAIN      39  36  89 SE12      29.87F
6HR MIN TEMP:  39; 6HR MAX TEMP:  46; 6HR PCP:  0.07;

SILOAM SPGS    CLOUDY    39  32  75 S16       29.88F
                                      6HR PCP:  0.09;

HIGHFILL       LGT RAIN  40  37  89 S12       29.86F
6HR MIN TEMP:  40; 6HR MAX TEMP:  46; 6HR PCP:  0.11;

$$

ARZ004-005-016-010700-
NORTH CENTRAL ARKANSAS

CITY           SKY/WX    TMP DP  RH WIND       PRES   REMARKS
BATESVILLE     CLOUDY    39  27  60 SE3       30.02F
6HR MIN TEMP:  39; 6HR MAX TEMP:  43;

FLIPPIN        CLOUDY    41  25  52 S5        29.95F
6HR MIN TEMP:  41; 6HR MAX TEMP:  45;

MTN HOME       CLOUDY    39  26  59 SE8       29.94F
6HR MIN TEMP:  39; 6HR MAX TEMP:  44;

$$

ARZ040-041-010700-
WEST CENTRAL ARKANSAS

CITY           SKY/WX    TMP DP  RH WIND       PRES   REMARKS
MENA           CLOUDY    52  39  62 SE5G16    29.93F
MOUNT IDA      CLOUDY    50  32  50 SE6       29.93F
6HR MIN TEMP:  46; 6HR MAX TEMP:  50;

$$

ARZ009-017-025-026-028-010700-
NORTHEAST ARKANSAS

CITY           SKY/WX    TMP DP  RH WIND       PRES   REMARKS
CORNING        FAIR      37  32  81 E3        30.04F
JONESBORO      CLOUDY    39  31  72 E3        30.04F
6HR MIN TEMP:  39; 6HR MAX TEMP:  42;

NEWPORT        CLOUDY    38  35  89 E3        30.04F
6HR MIN TEMP:  38; 6HR MAX TEMP:  44;

WALNUT RIDGE   CLOUDY    39  28  65 SE6       30.03F
6HR MIN TEMP:  39; 6HR MAX TEMP:  43;

BLYTHEVILLE    CLOUDY    46  26  45 SE8       30.06F
6HR MIN TEMP:  43; 6HR MAX TEMP:  47;

$$

ARZ022-023-033-042-044-010700-
CENTRAL ARKANSAS

CITY           SKY/WX    TMP DP  RH WIND       PRES   REMARKS
LITTLE ROCK    CLOUDY    45  32  60 SE3       30.02F
6HR MIN TEMP:  41; 6HR MAX TEMP:  45;

N LITTLE ROCK  CLOUDY    43  34  72 E5        30.02F
6HR MIN TEMP:  41; 6HR MAX TEMP:  43;

JACKSONVILLE   CLOUDY    42  31  65 E2        30.01F
6HR MIN TEMP:  39; 6HR MAX TEMP:  44;

SEARCY         CLOUDY    40  33  76 E3        30.04F
6HR MIN TEMP:  37; 6HR MAX TEMP:  44;

HOT SPRINGS    CLOUDY    46  32  58 E9        29.99F
6HR MIN TEMP:  44; 6HR MAX TEMP:  47;

RUSSELLVILLE   LGT RAIN  43  30  60 E6        29.98F
6HR MIN TEMP:  43; 6HR MAX TEMP:  45; 6HR PCP: TRACE;

CLINTON        MOCLDY    39  32  75 CALM      30.02F
$$

ARZ036-010700-
EAST ARKANSAS

CITY           SKY/WX    TMP DP  RH WIND       PRES   REMARKS
WEST MEMPHIS   CLOUDY    48  27  44 S9        30.04F
6HR MIN TEMP:  44; 6HR MAX TEMP:  49;

$$

ARZ050-053-066-070-073-010700-
SOUTHWEST ARKANSAS

CITY           SKY/WX    TMP DP  RH WIND       PRES   REMARKS
ARKADELPHIA    CLOUDY    46  37  70 CALM      30.00F
6HR MIN TEMP:  43; 6HR MAX TEMP:  47;

CAMDEN         CLOUDY    50  30  46 MISG      30.01F
TEXARKANA      CLOUDY    52  39  61 S12       29.96F
6HR MIN TEMP:  48; 6HR MAX TEMP:  52;

EL DORADO      CLOUDY    52  36  54 SE12      30.01F
6HR MIN TEMP:  48; 6HR MAX TEMP:  52;

DE QUEEN       CLOUDY    50  36  58 SE6       29.93F
6HR MIN TEMP:  48; 6HR MAX TEMP:  50;

$$

ARZ056-057-069-010700-
SOUTHEAST ARKANSAS

CITY           SKY/WX    TMP DP  RH WIND       PRES   REMARKS
PINE BLUFF     MOCLDY    46  33  60 SE8       30.02F
6HR MIN TEMP:  43; 6HR MAX TEMP:  46;

STUTTGART      CLOUDY    45  30  57 SE7       30.03F
6HR MIN TEMP:  43; 6HR MAX TEMP:  45;

MONTICELLO     CLOUDY    50  32  50 SE6       30.04F
6HR MIN TEMP:  47; 6HR MAX TEMP:  50;


$$




USA.gov is the U.S. government's official web portal to all federal, state and local government web resources and services.